Regional Weather Roundup
Issued by NWS

Home | Current Version | Previous Version | Text Only | Print | Product List | Glossary On
Versions: 1 2 3 4 5 6 7 8 9 10 11 12 13 14 15 16 17 18 19 20 21 22 23 24 25 26 27 28 29 30 31 32 33 34 35 36 37 38 39 40 41 42 43 44 45 46 47 48 49 50
000
ASUS45 KABQ 252301
RWRNM
NEW MEXICO REGIONAL WEATHER ROUNDUP
NATIONAL WEATHER SERVICE ALBUQUERQUE NM
500 PM MDT SAT MAR 25 2017

NOTE: "FAIR" MEANS FEW OR NO CLOUDS BELOW 12,000 FEET AGL WITH NO
       SIGNIFICANT WEATHER OR OBSTRUCTIONS TO VISION.

      THIS PRODUCT IS RELEASED AS TWO VERSIONS.  ONE VERSION NEAR
      THE TOP OF THE HOUR CONTAINING PRELIMINARY DATA FROM ALBUQUERQUE
      AND OTHER STATIONS.  A FINAL VERSION WITH ADDITIONAL DATA IS
      ISSUED ABOUT 10 MINUTES AFTER THE HOUR.

NMZ501-503-504-510>518-260000-
NORTHWEST PLATEAU/NORTHCENTRAL MOUNTAINS

CITY           SKY/WX    TMP DP  RH WIND       PRES   REMARKS
FARMINGTON     FAIR      66  14  13 W16       29.84F
LOS ALAMOS     FAIR      57   9  14 S8        29.97F
SANTA FE       FAIR      60  18  19 SW6       29.93F
TAOS             N/A     57  25  28 SW12      29.94F
ANGEL FIRE     FAIR      50  22  33 W13G20    29.99F

$$
NMZ402-403-502-505>509-260000-
WESTCENTRAL MOUNTAINS/SOUTHWEST MOUNTAINS

CITY           SKY/WX    TMP DP  RH WIND       PRES   REMARKS
GALLUP         FAIR      61  18  18 SW20G30   29.92F
GRANTS         FAIR      67  12  11 W14G26    29.91F
SILVER CITY    FAIR      70  17  13 W17G30    29.96F

$$
NMZ407-409-411-412-260000-
SOUTHERN DESERTS

CITY           SKY/WX    TMP DP  RH WIND       PRES   REMARKS
DEMING         FAIR      78  15   9 SW16      29.89F
LAS CRUCES     FAIR      77  14   9 SW12      29.91F
HOLLOMAN AFB   FAIR      76  16  10 S14G20    29.91F
ALAMOGORDO     FAIR      73  23  15 S16       29.90F
T OR C         FAIR      75  15  10 S23G29    29.86F

$$
NMZ519>523-260000-
CENTRAL VALLEYS/CENTRAL HIGHLANDS

CITY           SKY/WX    TMP DP  RH WIND       PRES   REMARKS
ALBUQUERQUE    FAIR      71  15  11 S20G28    29.86F
MORIARTY ARPT  FAIR      69  17  13 S20       29.93F
CLINES CORNERS FAIR      61  16  17 SW20      29.96F
BELEN          FAIR      73  19  13 SE24G30   29.84F
SOCORRO        FAIR      74  17  11 S17G24    29.85F

$$
NMZ524>526-539-540-260000-
SOUTHCENTRAL MOUNTAINS

CITY           SKY/WX    TMP DP  RH WIND       PRES   REMARKS
RUIDOSO        NOT AVBL

$$
NMZ527>531-260000-
NORTHEAST HIGHLANDS/NORTHEAST PLAINS

CITY           SKY/WX    TMP DP  RH WIND       PRES   REMARKS
LAS VEGAS      FAIR      64   7  10 SW18      29.93F
RATON          FAIR      60  27  28 S13       29.90F
CLAYTON        FAIR      67  27  22 S16G22    29.90F

$$
NMZ532>537-260000-
EASTCENTRAL PLAINS

CITY           SKY/WX    TMP DP  RH WIND       PRES   REMARKS
TUCUMCARI      FAIR      74  22  14 S8G18     29.83F
CANNON AFB     FAIR      73  22  14 S17       29.89F
CLOVIS AIRPORT FAIR      73  27  17 SW12G23   29.90F

$$
NMZ028-029-538-260000-
SOUTHEAST PLAINS

CITY           SKY/WX    TMP DP  RH WIND       PRES   REMARKS
ROSWELL        FAIR      78  26  14 S23G30      N/A
ARTESIA        FAIR      77  23  13 S17       29.87F
CARLSBAD       FAIR      78  27  15 SE13G24   29.86F
HOBBS          SUNNY     73  25  16 S15       29.93F


$$




USA.gov is the U.S. government's official web portal to all federal, state and local government web resources and services.